| time (UTC) | temp F | wind direction | speed MPH | gust MPH | rain 1hr in | rain 24hr in | rain mn in | humidity % | barometer mb |
| 20260906105004 | 58 | 53 | 5.0 | 10.0 | 0.01 | 0.18 | 0.12 | 94 | 1015.8 |
| 20260906104504 | 58 | 15 | 5.0 | 12.0 | 0.01 | 0.18 | 0.12 | 94 | 1015.8 |
| 20260906104003 | 58 | 61 | 5.0 | 12.0 | 0.01 | 0.18 | 0.12 | 95 | 1015.7 |
| 20260906103503 | 59 | 36 | 4.0 | 12.0 | 0.01 | 0.18 | 0.12 | 95 | 1015.6 |
| 20260906103012 | 59 | 47 | 3.0 | 10.0 | 0.01 | 0.18 | 0.12 | 95 | 1015.5 |
| 20260906102502 | 59 | 19 | 3.0 | 10.0 | 0.01 | 0.18 | 0.12 | 95 | 1015.4 |
| 20260906102004 | 59 | 41 | 1.0 | 4.0 | 0.01 | 0.18 | 0.12 | 95 | 1015.5 |
| 20260906101504 | 59 | 44 | 2.0 | 4.0 | 0.01 | 0.18 | 0.12 | 95 | 1015.4 |
| 20260906101002 | 59 | 9 | 1.0 | 3.0 | 0.01 | 0.18 | 0.12 | 95 | 1015.3 |
| 20260906100505 | 59 | 38 | 1.0 | 7.0 | 0.01 | 0.18 | 0.12 | 95 | 1015.3 |
| 20260906100004 | 59 | 32 | 3.0 | 7.0 | 0.02 | 0.18 | 0.12 | 95 | 1015.3 |
| 20260906095503 | 59 | 22 | 2.0 | 4.0 | 0.02 | 0.17 | 0.11 | 95 | 1015.2 |
| 20260906095003 | 59 | 30 | 2.0 | 4.0 | 0.03 | 0.17 | 0.11 | 95 | 1015.2 |
| 20260906094506 | 59 | 309 | 1.0 | 4.0 | 0.03 | 0.17 | 0.11 | 95 | 1015.2 |
| 20260906094007 | 59 | 342 | 1.0 | 4.0 | 0.03 | 0.17 | 0.11 | 95 | 1015.2 |
| 20260906093504 | 59 | 344 | 1.0 | 4.0 | 0.03 | 0.17 | 0.11 | 95 | 1015.2 |
| 20260906093006 | 58 | 338 | 2.0 | 4.0 | 0.04 | 0.17 | 0.11 | 95 | 1015.1 |
| 20260906092503 | 59 | 325 | 2.0 | 4.0 | 0.04 | 0.17 | 0.11 | 95 | 1015.0 |
| 20260906092003 | 59 | 298 | 1.0 | 4.0 | 0.05 | 0.17 | 0.11 | 95 | 1015.0 |
| 20260906091504 | 59 | 325 | 1.0 | 4.0 | 0.05 | 0.17 | 0.11 | 95 | 1014.9 |
| 20260906091005 | 59 | 9 | 1.0 | 5.0 | 0.05 | 0.17 | 0.11 | 95 | 1014.9 |
| 20260906090503 | 59 | 31 | 2.0 | 8.0 | 0.07 | 0.17 | 0.11 | 95 | 1014.9 |
| 20260906090009 | 59 | 338 | 3.0 | 9.0 | 0.07 | 0.16 | 0.10 | 95 | 1014.8 |
| 20260906085504 | 59 | 302 | 4.0 | 9.0 | 0.07 | 0.15 | 0.09 | 94 | 1014.8 |
| 20260906085003 | 59 | 332 | 3.0 | 7.0 | 0.06 | 0.14 | 0.08 | 95 | 1014.9 |
| 20260906084510 | 59 | 9 | 1.0 | 4.0 | 0.07 | 0.14 | 0.08 | 95 | 1014.8 |
| 20260906084003 | 59 | 9 | 1.0 | 6.0 | 0.07 | 0.14 | 0.08 | 95 | 1014.9 |
| 20260906083503 | 59 | 15 | 1.0 | 6.0 | 0.07 | 0.14 | 0.08 | 95 | 1014.9 |
| 20260906083007 | 59 | 32 | 2.0 | 4.0 | 0.06 | 0.13 | 0.07 | 95 | 1014.9 |
| 20260906082503 | 59 | 9 | 2.0 | 4.0 | 0.06 | 0.13 | 0.07 | 94 | 1014.9 |
| 20260906082004 | 59 | 15 | 2.0 | 4.0 | 0.05 | 0.12 | 0.06 | 94 | 1014.8 |
| 20260906081510 | 59 | 34 | 1.0 | 4.0 | 0.05 | 0.12 | 0.06 | 95 | 1014.8 |
| 20260906081003 | 59 | 19 | 1.0 | 5.0 | 0.05 | 0.12 | 0.06 | 95 | 1014.8 |
| 20260906080506 | 59 | 341 | 1.0 | 5.0 | 0.03 | 0.10 | 0.04 | 95 | 1014.8 |
| 20260906080007 | 59 | 13 | 2.0 | 4.0 | 0.02 | 0.09 | 0.03 | 95 | 1014.9 |
| 20260906075503 | 60 | 9 | 1.0 | 8.0 | 0.01 | 0.08 | 0.02 | 95 | 1014.9 |
| 20260906075004 | 59 | 19 | 3.0 | 8.0 | 0.01 | 0.08 | 0.02 | 94 | 1014.9 |
| 20260906074510 | 59 | 34 | 3.0 | 5.0 | 0.00 | 0.07 | 0.01 | 95 | 1014.8 |
| 20260906074003 | 59 | 26 | 2.0 | 5.0 | 0.00 | 0.07 | 0.01 | 94 | 1014.8 |
| 20260906073507 | 60 | 26 | 3.0 | 4.0 | 0.00 | 0.07 | 0.01 | 94 | 1014.7 |
| 20260906073015 | 60 | 9 | 0.0 | 3.0 | 0.00 | 0.07 | 0.01 | 94 | 1014.7 |
| 20260906072503 | 60 | 316 | 0.0 | 3.0 | 0.00 | 0.07 | 0.01 | 94 | 1014.7 |
| 20260906072004 | 59 | 9 | 1.0 | 3.0 | 0.00 | 0.07 | 0.01 | 94 | 1014.7 |
| 20260906071524 | 59 | 341 | 1.0 | 2.0 | 0.00 | 0.07 | 0.01 | 94 | 1014.6 |
| 20260906071006 | 59 | 250 | 1.0 | 2.0 | 0.00 | 0.07 | 0.01 | 94 | 1014.6 |
| 20260906070509 | 60 | 325 | 0.0 | 2.0 | 0.00 | 0.07 | 0.01 | 94 | 1014.6 |
| 20260906070015 | 59 | 221 | 0.0 | 2.0 | 0.00 | 0.07 | 0.01 | 94 | 1014.7 |
| 20260906065507 | 59 | 9 | 0.0 | 3.0 | 0.00 | 0.07 | 0.01 | 94 | 1014.7 |
| 20260906065006 | 60 | 76 | 1.0 | 3.0 | 0.00 | 0.07 | 0.01 | 94 | 1014.6 |
| 20260906064513 | 60 | 9 | 0.0 | 2.0 | 0.00 | 0.07 | 0.01 | 94 | 1014.6 |
| 20260906064009 | 60 | 265 | 0.0 | 2.0 | 0.00 | 0.07 | 0.01 | 94 | 1014.6 |
| 20260906063508 | 60 | 221 | 0.0 | 2.0 | 0.00 | 0.07 | 0.01 | 94 | 1014.6 |
| 20260906063012 | 60 | 221 | 0.0 | 3.0 | 0.00 | 0.07 | 0.01 | 94 | 1014.6 |
| 20260906062505 | 60 | 67 | 0.0 | 4.0 | 0.00 | 0.07 | 0.01 | 94 | 1014.6 |
| 20260906062010 | 60 | 193 | 2.0 | 4.0 | 0.01 | 0.07 | 0.01 | 94 | 1014.5 |
| 20260906061515 | 60 | 188 | 2.0 | 3.0 | 0.01 | 0.07 | 0.01 | 94 | 1014.6 |
| 20260906061010 | 60 | 205 | 2.0 | 3.0 | 0.01 | 0.07 | 0.01 | 94 | 1014.7 |
| 20260906060505 | 60 | 153 | 0.0 | 2.0 | 0.01 | 0.07 | 0.01 | 94 | 1014.7 |
| 20260906060020 | 60 | 51 | 0.0 | 2.0 | 0.01 | 0.07 | 0.01 | 94 | 1014.8 |
| 20260906055505 | 60 | 93 | 0.0 | 2.0 | 0.01 | 0.07 | 0.01 | 94 | 1014.8 |
| 20260906055009 | 60 | 309 | 0.0 | 2.0 | 0.01 | 0.07 | 0.01 | 94 | 1014.7 |
| 20260906054515 | 60 | 265 | 0.0 | 2.0 | 0.01 | 0.07 | 0.01 | 94 | 1014.7 |
| 20260906054008 | 60 | 265 | 0.0 | 3.0 | 0.01 | 0.07 | 0.01 | 94 | 1014.7 |
| 20260906053508 | 60 | 309 | 0.0 | 4.0 | 0.01 | 0.07 | 0.01 | 94 | 1014.7 |
| 20260906053017 | 60 | 22 | 1.0 | 4.0 | 0.01 | 0.07 | 0.01 | 94 | 1014.7 |
| 20260906052509 | 60 | 34 | 3.0 | 4.0 | 0.01 | 0.07 | 0.01 | 94 | 1014.7 |
| 20260906052011 | 60 | 34 | 2.0 | 7.0 | 0.00 | 0.06 | 0.00 | 93 | 1014.8 |
| 20260906051518 | 60 | 16 | 3.0 | 8.0 | 0.00 | 0.06 | 0.00 | 93 | 1014.9 |
| 20260906051011 | 60 | 36 | 4.0 | 8.0 | 0.00 | 0.06 | 0.00 | 93 | 1014.9 |
| 20260906050513 | 60 | 325 | 3.0 | 9.0 | 0.00 | 0.06 | 0.00 | 93 | 1014.8 |
| 20260906050018 | 60 | 42 | 3.0 | 9.0 | 0.00 | 0.06 | 0.00 | 93 | 1014.9 |
| 20260906045513 | 60 | 53 | 3.0 | 7.0 | 0.00 | 0.06 | 0.00 | 93 | 1014.7 |
| 20260906045006 | 60 | 51 | 2.0 | 7.0 | 0.00 | 0.06 | 0.00 | 93 | 1014.7 |
| 20260906044518 | 60 | 340 | 3.0 | 7.0 | 0.00 | 0.06 | 0.00 | 93 | 1014.8 |
| 20260906044012 | 60 | 44 | 3.0 | 11.0 | 0.00 | 0.06 | 0.00 | 93 | 1014.8 |
| 20260906043509 | 60 | 41 | 5.0 | 11.0 | 0.00 | 0.06 | 0.00 | 93 | 1014.9 |
| 20260906043030 | 61 | 63 | 5.0 | 11.0 | 0.00 | 0.06 | 0.00 | 93 | 1014.7 |
| 20260906042510 | 61 | 34 | 6.0 | 9.0 | 0.00 | 0.06 | 0.00 | 93 | 1014.7 |
| 20260906042010 | 61 | 44 | 3.0 | 5.0 | 0.00 | 0.06 | 0.00 | 93 | 1014.7 |
| 20260906041521 | 61 | 47 | 3.0 | 5.0 | 0.00 | 0.06 | 0.00 | 93 | 1014.8 |
| 20260906041010 | 61 | 56 | 2.0 | 8.0 | 0.00 | 0.06 | 0.00 | 93 | 1014.8 |
| 20260906040509 | 61 | 57 | 4.0 | 8.0 | 0.01 | 0.06 | 0.00 | 93 | 1014.7 |
| 20260906040025 | 61 | 9 | 2.0 | 7.0 | 0.03 | 0.06 | 0.00 | 93 | 1014.7 |
| 20260906035511 | 61 | 17 | 3.0 | 7.0 | 0.03 | 0.06 | 0.06 | 93 | 1014.7 |
| 20260906035010 | 61 | 22 | 2.0 | 3.0 | 0.03 | 0.06 | 0.06 | 93 | 1014.6 |
| 20260906034546 | 61 | 61 | 0.0 | 6.0 | 0.03 | 0.06 | 0.06 | 93 | 1014.5 |
| 20260906034012 | 61 | 38 | 2.0 | 7.0 | 0.03 | 0.06 | 0.06 | 93 | 1014.4 |
| 20260906033510 | 61 | 13 | 3.0 | 7.0 | 0.03 | 0.06 | 0.06 | 92 | 1014.4 |
| 20260906033023 | 61 | 43 | 2.0 | 9.0 | 0.04 | 0.06 | 0.06 | 92 | 1014.4 |
| 20260906032510 | 61 | 46 | 3.0 | 9.0 | 0.04 | 0.06 | 0.06 | 92 | 1014.4 |
| 20260906032010 | 61 | 70 | 2.0 | 8.0 | 0.04 | 0.06 | 0.06 | 92 | 1014.4 |
| 20260906031531 | 62 | 347 | 3.0 | 8.0 | 0.05 | 0.06 | 0.06 | 92 | 1014.4 |
| 20260906031012 | 62 | 330 | 3.0 | 8.0 | 0.06 | 0.06 | 0.06 | 92 | 1014.3 |
| 20260906030513 | 62 | 330 | 2.0 | 7.0 | 0.05 | 0.05 | 0.05 | 92 | 1014.2 |
| 20260906030027 | 62 | 25 | 3.0 | 7.0 | 0.03 | 0.03 | 0.03 | 92 | 1014.2 |
| 20260906025515 | 62 | 17 | 2.0 | 4.0 | 0.03 | 0.03 | 0.03 | 92 | 1014.2 |
| 20260906025012 | 62 | 9 | 1.0 | 4.0 | 0.03 | 0.03 | 0.03 | 92 | 1014.3 |
| 20260906024527 | 62 | 46 | 2.0 | 7.0 | 0.03 | 0.03 | 0.03 | 91 | 1014.2 |
| 20260906024017 | 62 | 334 | 2.0 | 8.0 | 0.03 | 0.03 | 0.03 | 91 | 1014.2 |
| 20260906023515 | 63 | 9 | 3.0 | 8.0 | 0.03 | 0.03 | 0.03 | 91 | 1014.2 |
| 20260906023030 | 63 | 15 | 3.0 | 8.0 | 0.02 | 0.02 | 0.02 | 90 | 1014.1 |
| 20260906022510 | 63 | 49 | 4.0 | 8.0 | 0.02 | 0.02 | 0.02 | 90 | 1014.1 |
| 20260906022010 | 64 | 21 | 4.0 | 7.0 | 0.02 | 0.02 | 0.02 | 90 | 1014.1 |
| 20260906021531 | 64 | 93 | 1.0 | 3.0 | 0.01 | 0.01 | 0.01 | 89 | 1014.0 |
| 20260906021010 | 64 | 309 | 1.0 | 6.0 | 0.00 | 0.00 | 0.00 | 88 | 1014.0 |
| 20260906020511 | 64 | 9 | 1.0 | 7.0 | 0.00 | 0.00 | 0.00 | 87 | 1013.9 |
| 20260906020028 | 65 | 38 | 4.0 | 10.0 | 0.00 | 0.00 | 0.00 | 85 | 1013.9 |
| 20260906015503 | 65 | 302 | 3.0 | 10.0 | 0.00 | 0.00 | 0.00 | 85 | 1013.9 |
| 20260906015004 | 65 | 26 | 4.0 | 9.0 | 0.00 | 0.00 | 0.00 | 86 | 1013.7 |
| 20260906014507 | 65 | 30 | 2.0 | 7.0 | 0.00 | 0.00 | 0.00 | 86 | 1013.6 |
| 20260906014006 | 65 | 32 | 4.0 | 9.0 | 0.00 | 0.00 | 0.00 | 86 | 1013.5 |
| 20260906013514 | 65 | 34 | 5.0 | 11.0 | 0.00 | 0.00 | 0.00 | 86 | 1013.5 |
| 20260906013014 | 65 | 66 | 6.0 | 11.0 | 0.00 | 0.00 | 0.00 | 87 | 1013.5 |
| 20260906012512 | 65 | 21 | 3.0 | 9.0 | 0.00 | 0.00 | 0.00 | 88 | 1013.5 |
| 20260906012008 | 65 | 65 | 4.0 | 6.0 | 0.00 | 0.00 | 0.00 | 87 | 1013.4 |
| 20260906011518 | 65 | 9 | 0.0 | 2.0 | 0.00 | 0.00 | 0.00 | 87 | 1013.3 |
| 20260906011012 | 65 | 221 | 0.0 | 2.0 | 0.00 | 0.00 | 0.00 | 87 | 1013.4 |
| 20260906010509 | 65 | 9 | 0.0 | 3.0 | 0.00 | 0.00 | 0.00 | 87 | 1013.4 |
| 20260906010027 | 65 | 30 | 0.0 | 3.0 | 0.00 | 0.00 | 0.00 | 86 | 1013.3 |
| 20260906005514 | 65 | 51 | 0.0 | 3.0 | 0.00 | 0.00 | 0.00 | 85 | 1013.3 |
| 20260906005012 | 66 | 298 | 1.0 | 4.0 | 0.00 | 0.00 | 0.00 | 85 | 1013.2 |
| 20260906004530 | 65 | 334 | 1.0 | 4.0 | 0.00 | 0.00 | 0.00 | 86 | 1013.1 |
| 20260906004005 | 65 | 9 | 2.0 | 4.0 | 0.00 | 0.00 | 0.00 | 86 | 1013.1 |
| 20260906003504 | 65 | 9 | 1.0 | 4.0 | 0.00 | 0.00 | 0.00 | 87 | 1013.0 |
| 20260906003008 | 65 | 28 | 2.0 | 4.0 | 0.00 | 0.00 | 0.00 | 87 | 1013.0 |
| 20260906002515 | 65 | 9 | 0.0 | 2.0 | 0.00 | 0.00 | 0.00 | 87 | 1012.9 |
| 20260906002009 | 65 | 291 | 0.0 | 2.0 | 0.00 | 0.00 | 0.00 | 87 | 1012.9 |
| 20260906001532 | 65 | 309 | 0.0 | 2.0 | 0.00 | 0.00 | 0.00 | 87 | 1012.9 |
| 20260906001007 | 65 | 51 | 0.0 | 3.0 | 0.00 | 0.00 | 0.00 | 86 | 1012.9 |
| 20260906000516 | 65 | 265 | 0.0 | 3.0 | 0.00 | 0.00 | 0.00 | 86 | 1012.9 |
| 20260906000025 | 65 | 93 | 0.0 | 3.0 | 0.00 | 0.00 | 0.00 | 86 | 1012.9 |
| 20260905235514 | 65 | 282 | 1.0 | 3.0 | 0.00 | 0.00 | 0.00 | 86 | 1012.8 |
| 20260905235010 | 65 | 221 | 0.0 | 4.0 | 0.00 | 0.00 | 0.00 | 85 | 1012.8 |
| 20260905234529 | 66 | 19 | 2.0 | 5.0 | 0.00 | 0.00 | 0.00 | 84 | 1012.7 |
| 20260905234013 | 66 | 341 | 2.0 | 5.0 | 0.00 | 0.00 | 0.00 | 84 | 1012.6 |
| 20260905233515 | 66 | 22 | 1.0 | 3.0 | 0.00 | 0.00 | 0.00 | 84 | 1012.5 |
| 20260905233032 | 66 | 93 | 0.0 | 5.0 | 0.00 | 0.00 | 0.00 | 83 | 1012.5 |
| 20260905232520 | 66 | 34 | 2.0 | 5.0 | 0.00 | 0.00 | 0.00 | 83 | 1012.5 |
| 20260905232006 | 66 | 46 | 2.0 | 4.0 | 0.00 | 0.00 | 0.00 | 82 | 1012.5 |
| 20260905231532 | 67 | 34 | 0.0 | 2.0 | 0.00 | 0.00 | 0.00 | 82 | 1012.4 |
| 20260905231005 | 67 | 93 | 0.0 | 2.0 | 0.00 | 0.00 | 0.00 | 81 | 1012.3 |
| 20260905230507 | 68 | 178 | 0.0 | 2.0 | 0.00 | 0.00 | 0.00 | 80 | 1012.2 |
| 20260905230038 | 68 | 265 | 0.0 | 2.0 | 0.00 | 0.00 | 0.00 | 77 | 1012.2 |
| 20260905225520 | 68 | 9 | 0.0 | 2.0 | 0.00 | 0.00 | 0.00 | 78 | 1012.2 |
| 20260905225014 | 68 | 325 | 0.0 | 2.0 | 0.00 | 0.00 | 0.00 | 78 | 1012.2 |
| 20260905224525 | 69 | 9 | 0.0 | 2.0 | 0.00 | 0.00 | 0.00 | 77 | 1012.2 |
| 20260905224015 | 69 | 221 | 0.0 | 2.0 | 0.00 | 0.00 | 0.00 | 79 | 1012.2 |
| 20260905223512 | 70 | 325 | 0.0 | 4.0 | 0.00 | 0.00 | 0.00 | 74 | 1012.2 |
| 20260905223042 | 70 | 9 | 1.0 | 8.0 | 0.00 | 0.00 | 0.00 | 73 | 1012.2 |
| 20260905222517 | 70 | 319 | 2.0 | 8.0 | 0.00 | 0.00 | 0.00 | 72 | 1012.1 |
| 20260905222016 | 70 | 325 | 1.0 | 4.0 | 0.00 | 0.00 | 0.00 | 73 | 1012.1 |
| 20260905221531 | 70 | 334 | 2.0 | 4.0 | 0.00 | 0.00 | 0.00 | 73 | 1012.0 |
| 20260905221017 | 70 | 330 | 1.0 | 6.0 | 0.00 | 0.00 | 0.00 | 73 | 1012.0 |
| 20260905220510 | 71 | 9 | 1.0 | 6.0 | 0.00 | 0.00 | 0.00 | 70 | 1012.0 |
| 20260905220018 | 71 | 59 | 2.0 | 6.0 | 0.00 | 0.00 | 0.00 | 70 | 1012.0 |
| 20260905215506 | 71 | 332 | 2.0 | 6.0 | 0.00 | 0.00 | 0.00 | 71 | 1012.0 |
| 20260905215009 | 70 | 26 | 2.0 | 9.0 | 0.00 | 0.00 | 0.00 | 71 | 1011.9 |
| 20260905214540 | 70 | 30 | 2.0 | 9.0 | 0.00 | 0.00 | 0.00 | 70 | 1011.8 |
| 20260905214010 | 70 | 26 | 2.0 | 11.0 | 0.00 | 0.00 | 0.00 | 71 | 1011.7 |
| 20260905213515 | 71 | 19 | 3.0 | 11.0 | 0.00 | 0.00 | 0.00 | 71 | 1011.7 |
| 20260905213026 | 71 | 31 | 3.0 | 9.0 | 0.00 | 0.00 | 0.00 | 70 | 1011.6 |
| 20260905212517 | 71 | 22 | 2.0 | 9.0 | 0.00 | 0.00 | 0.00 | 70 | 1011.5 |
| 20260905212013 | 71 | 9 | 2.0 | 9.0 | 0.00 | 0.00 | 0.00 | 70 | 1011.4 |
| 20260905211535 | 71 | 9 | 4.0 | 15.0 | 0.00 | 0.00 | 0.00 | 68 | 1011.3 |
| 20260905211014 | 72 | 57 | 8.0 | 15.0 | 0.00 | 0.00 | 0.00 | 67 | 1011.3 |
| 20260905210514 | 73 | 51 | 5.0 | 17.0 | 0.00 | 0.00 | 0.00 | 66 | 1011.3 |
| 20260905210044 | 74 | 44 | 5.0 | 18.0 | 0.00 | 0.00 | 0.00 | 65 | 1011.2 |
| 20260905205516 | 75 | 74 | 8.0 | 18.0 | 0.00 | 0.00 | 0.00 | 63 | 1011.1 |
| 20260905205017 | 75 | 67 | 8.0 | 16.0 | 0.00 | 0.00 | 0.00 | 63 | 1011.1 |
| 20260905204518 | 74 | 63 | 4.0 | 11.0 | 0.00 | 0.00 | 0.00 | 65 | 1011.0 |
| 20260905204011 | 74 | 44 | 3.0 | 11.0 | 0.00 | 0.00 | 0.00 | 65 | 1011.0 |
| 20260905203517 | 74 | 311 | 3.0 | 13.0 | 0.00 | 0.00 | 0.00 | 64 | 1010.9 |
| 20260905203026 | 74 | 34 | 5.0 | 17.0 | 0.00 | 0.00 | 0.00 | 62 | 1010.8 |
| 20260905202518 | 74 | 34 | 7.0 | 17.0 | 0.00 | 0.00 | 0.00 | 61 | 1010.7 |
| 20260905202013 | 74 | 25 | 10.0 | 16.0 | 0.00 | 0.00 | 0.00 | 61 | 1010.7 |
| 20260905201532 | 73 | 20 | 8.0 | 16.0 | 0.00 | 0.00 | 0.00 | 62 | 1010.7 |
| 20260905201014 | 74 | 31 | 8.0 | 20.0 | 0.00 | 0.00 | 0.00 | 62 | 1010.7 |
| 20260905200515 | 75 | 32 | 8.0 | 20.0 | 0.00 | 0.00 | 0.00 | 61 | 1010.7 |
| 20260905200046 | 75 | 48 | 8.0 | 15.0 | 0.00 | 0.00 | 0.00 | 60 | 1010.6 |
| 20260905195518 | 76 | 347 | 7.0 | 21.0 | 0.00 | 0.00 | 0.00 | 59 | 1010.6 |
| 20260905195017 | 76 | 53 | 13.0 | 21.0 | 0.00 | 0.00 | 0.00 | 60 | 1010.6 |
| 20260905194534 | 76 | 348 | 8.0 | 21.0 | 0.00 | 0.00 | 0.00 | 62 | 1010.7 |
| 20260905194015 | 76 | 323 | 11.0 | 20.0 | 0.00 | 0.00 | 0.00 | 61 | 1010.6 |
| 20260905193519 | 75 | 11 | 8.0 | 20.0 | 0.00 | 0.00 | 0.00 | 62 | 1010.6 |
| 20260905193020 | 77 | 48 | 11.0 | 20.0 | 0.00 | 0.00 | 0.00 | 61 | 1010.7 |
| 20260905192510 | 77 | 38 | 11.0 | 21.0 | 0.00 | 0.00 | 0.00 | 61 | 1010.7 |
| 20260905192018 | 77 | 36 | 11.0 | 21.0 | 0.00 | 0.00 | 0.00 | 60 | 1010.7 |
| 20260905191534 | 77 | 40 | 13.0 | 21.0 | 0.00 | 0.00 | 0.00 | 60 | 1010.7 |
| 20260905191015 | 76 | 54 | 9.0 | 17.0 | 0.00 | 0.00 | 0.00 | 62 | 1010.7 |
| 20260905190516 | 76 | 34 | 9.0 | 17.0 | 0.00 | 0.00 | 0.00 | 63 | 1010.8 |
| 20260905190029 | 75 | 56 | 7.0 | 17.0 | 0.00 | 0.00 | 0.00 | 65 | 1010.8 |
| 20260905185504 | 75 | 56 | 7.0 | 15.0 | 0.00 | 0.00 | 0.00 | 64 | 1010.8 |
| 20260905185004 | 75 | 79 | 7.0 | 20.0 | 0.00 | 0.00 | 0.00 | 63 | 1010.8 |
| 20260905184522 | 75 | 347 | 9.0 | 20.0 | 0.00 | 0.00 | 0.00 | 62 | 1010.8 |
| 20260905184007 | 75 | 340 | 5.0 | 18.0 | 0.00 | 0.00 | 0.00 | 64 | 1010.8 |
| 20260905183506 | 76 | 34 | 6.0 | 18.0 | 0.00 | 0.00 | 0.00 | 62 | 1010.9 |
| 20260905183026 | 77 | 20 | 10.0 | 23.0 | 0.00 | 0.00 | 0.00 | 61 | 1010.7 |
| 20260905182504 | 77 | 337 | 11.0 | 23.0 | 0.00 | 0.00 | 0.00 | 59 | 1010.7 |
| 20260905182003 | 76 | 24 | 13.0 | 19.0 | 0.00 | 0.00 | 0.00 | 59 | 1010.8 |
| 20260905181505 | 77 | 38 | 6.0 | 12.0 | 0.00 | 0.00 | 0.00 | 61 | 1010.8 |
| 20260905181011 | 75 | 16 | 4.0 | 16.0 | 0.00 | 0.00 | 0.00 | 65 | 1010.8 |
| 20260905180504 | 74 | 77 | 8.0 | 17.0 | 0.00 | 0.00 | 0.00 | 64 | 1010.9 |
| 20260905180037 | 73 | 340 | 8.0 | 18.0 | 0.00 | 0.00 | 0.00 | 64 | 1010.9 |
| 20260905175503 | 74 | 49 | 7.0 | 18.0 | 0.00 | 0.00 | 0.00 | 62 | 1010.8 |
| 20260905175003 | 75 | 346 | 11.0 | 18.0 | 0.00 | 0.00 | 0.00 | 61 | 1010.8 |
| 20260905174531 | 76 | 59 | 12.0 | 19.0 | 0.00 | 0.00 | 0.00 | 61 | 1010.8 |
| 20260905174007 | 77 | 13 | 12.0 | 19.0 | 0.00 | 0.00 | 0.00 | 56 | 1010.7 |
| 20260905173509 | 77 | 38 | 6.0 | 19.0 | 0.00 | 0.00 | 0.00 | 59 | 1010.8 |
| 20260905173017 | 77 | 66 | 10.0 | 19.0 | 0.00 | 0.00 | 0.00 | 57 | 1010.8 |
| 20260905172506 | 77 | 311 | 7.0 | 16.0 | 0.00 | 0.00 | 0.00 | 58 | 1010.7 |
| 20260905172008 | 76 | 47 | 7.0 | 19.0 | 0.00 | 0.00 | 0.00 | 60 | 1010.8 |
| 20260905171524 | 75 | 22 | 9.0 | 29.0 | 0.00 | 0.00 | 0.00 | 63 | 1010.8 |
| 20260905171003 | 76 | 51 | 13.0 | 30.0 | 0.00 | 0.00 | 0.00 | 59 | 1010.8 |
| 20260905170512 | 76 | 34 | 12.0 | 26.0 | 0.00 | 0.00 | 0.00 | 59 | 1010.8 |
| 20260905170028 | 75 | 28 | 12.0 | 20.0 | 0.00 | 0.00 | 0.00 | 59 | 1010.8 |
| 20260905165513 | 75 | 45 | 14.0 | 22.0 | 0.00 | 0.00 | 0.00 | 61 | 1010.9 |
| 20260905165005 | 76 | 348 | 12.0 | 22.0 | 0.00 | 0.00 | 0.00 | 59 | 1010.8 |
| 20260905164507 | 75 | 51 | 4.0 | 20.0 | 0.00 | 0.00 | 0.00 | 64 | 1010.8 |
| 20260905164003 | 73 | 25 | 9.0 | 20.0 | 0.00 | 0.00 | 0.00 | 64 | 1010.9 |
| 20260905163506 | 74 | 40 | 10.0 | 19.0 | 0.00 | 0.00 | 0.00 | 62 | 1010.9 |
| 20260905163014 | 75 | 33 | 9.0 | 19.0 | 0.00 | 0.00 | 0.00 | 63 | 1010.9 |
| 20260905162518 | 75 | 61 | 13.0 | 19.0 | 0.00 | 0.00 | 0.00 | 63 | 1010.9 |
| 20260905162007 | 76 | 83 | 11.0 | 18.0 | 0.00 | 0.00 | 0.00 | 63 | 1010.9 |
| 20260905161517 | 76 | 39 | 8.0 | 18.0 | 0.00 | 0.00 | 0.00 | 63 | 1010.9 |
| 20260905161013 | 75 | 18 | 10.0 | 22.0 | 0.00 | 0.00 | 0.00 | 64 | 1011.0 |
| 20260905160511 | 75 | 66 | 14.0 | 22.0 | 0.00 | 0.00 | 0.00 | 63 | 1011.0 |
| 20260905160027 | 74 | 41 | 10.0 | 21.0 | 0.00 | 0.00 | 0.00 | 66 | 1011.1 |
| 20260905155518 | 72 | 47 | 10.0 | 16.0 | 0.00 | 0.00 | 0.00 | 69 | 1011.3 |
| 20260905155012 | 71 | 30 | 6.0 | 17.0 | 0.00 | 0.00 | 0.00 | 69 | 1011.3 |
| 20260905154506 | 72 | 64 | 6.0 | 17.0 | 0.00 | 0.00 | 0.00 | 68 | 1011.3 |
| 20260905154005 | 72 | 36 | 5.0 | 13.0 | 0.00 | 0.00 | 0.00 | 68 | 1011.4 |
| 20260905153503 | 71 | 33 | 6.0 | 17.0 | 0.00 | 0.00 | 0.00 | 73 | 1011.5 |
| 20260905153014 | 70 | 49 | 6.0 | 17.0 | 0.00 | 0.00 | 0.00 | 69 | 1011.5 |
| 20260905152504 | 71 | 46 | 7.0 | 19.0 | 0.00 | 0.00 | 0.00 | 69 | 1011.5 |
| 20260905152016 | 71 | 31 | 9.0 | 19.0 | 0.00 | 0.00 | 0.00 | 70 | 1011.5 |
| 20260905151517 | 71 | 64 | 9.0 | 16.0 | 0.00 | 0.00 | 0.00 | 69 | 1011.5 |
| 20260905151008 | 71 | 67 | 9.0 | 16.0 | 0.00 | 0.00 | 0.00 | 71 | 1011.5 |
| 20260905150514 | 72 | 31 | 10.0 | 17.0 | 0.00 | 0.00 | 0.00 | 70 | 1011.5 |
| 20260905150026 | 72 | 63 | 10.0 | 18.0 | 0.00 | 0.00 | 0.00 | 72 | 1011.5 |
| 20260905145512 | 72 | 44 | 8.0 | 18.0 | 0.00 | 0.00 | 0.00 | 71 | 1011.5 |
| 20260905145010 | 73 | 21 | 9.0 | 19.0 | 0.00 | 0.00 | 0.00 | 73 | 1011.5 |
| 20260905144528 | 72 | 79 | 7.0 | 19.0 | 0.00 | 0.00 | 0.00 | 74 | 1011.5 |
| 20260905144012 | 72 | 47 | 13.0 | 18.0 | 0.00 | 0.00 | 0.00 | 73 | 1011.4 |
| 20260905143503 | 71 | 15 | 7.0 | 15.0 | 0.00 | 0.00 | 0.00 | 76 | 1011.4 |
| 20260905143009 | 70 | 38 | 9.0 | 15.0 | 0.00 | 0.00 | 0.00 | 77 | 1011.5 |
| 20260905142506 | 69 | 57 | 7.0 | 15.0 | 0.00 | 0.00 | 0.00 | 78 | 1011.5 |
| 20260905142016 | 69 | 55 | 5.0 | 17.0 | 0.00 | 0.00 | 0.00 | 79 | 1011.6 |
| 20260905141514 | 70 | 50 | 12.0 | 17.0 | 0.00 | 0.00 | 0.00 | 78 | 1011.6 |
| 20260905141009 | 69 | 57 | 5.0 | 10.0 | 0.00 | 0.00 | 0.00 | 82 | 1011.7 |
| 20260905140508 | 68 | 71 | 4.0 | 7.0 | 0.00 | 0.00 | 0.00 | 82 | 1011.8 |
| 20260905140018 | 67 | 79 | 3.0 | 7.0 | 0.00 | 0.00 | 0.00 | 84 | 1011.8 |
| 20260905135509 | 66 | 57 | 4.0 | 8.0 | 0.00 | 0.00 | 0.00 | 82 | 1011.7 |
| 20260905135011 | 66 | 165 | 2.0 | 8.0 | 0.00 | 0.00 | 0.00 | 84 | 1011.7 |
| 20260905134539 | 65 | 46 | 3.0 | 6.0 | 0.00 | 0.00 | 0.00 | 87 | 1011.7 |
| 20260905134014 | 65 | 41 | 2.0 | 4.0 | 0.00 | 0.00 | 0.00 | 91 | 1011.8 |
| 20260905133515 | 64 | 19 | 1.0 | 4.0 | 0.00 | 0.00 | 0.00 | 93 | 1011.8 |
| 20260905133035 | 63 | 56 | 3.0 | 4.0 | 0.00 | 0.00 | 0.00 | 94 | 1011.8 |
| 20260905132517 | 62 | 83 | 1.0 | 4.0 | 0.00 | 0.00 | 0.00 | 94 | 1011.9 |
| 20260905132016 | 62 | 19 | 3.0 | 4.0 | 0.00 | 0.00 | 0.00 | 95 | 1011.8 |
| 20260905131530 | 62 | 119 | 1.0 | 5.0 | 0.00 | 0.00 | 0.00 | 95 | 1011.8 |
| 20260905131020 | 61 | 41 | 2.0 | 5.0 | 0.00 | 0.00 | 0.00 | 95 | 1011.8 |
| 20260905130507 | 61 | 338 | 2.0 | 6.0 | 0.00 | 0.00 | 0.00 | 95 | 1011.9 |
| 20260905130014 | 60 | 28 | 3.0 | 6.0 | 0.00 | 0.00 | 0.00 | 95 | 1011.8 |
| 20260905125506 | 60 | 34 | 3.0 | 6.0 | 0.00 | 0.00 | 0.00 | 95 | 1011.8 |
| 20260905125008 | 60 | 32 | 3.0 | 5.0 | 0.00 | 0.00 | 0.00 | 95 | 1011.8 |
| 20260905124524 | 60 | 41 | 2.0 | 5.0 | 0.00 | 0.00 | 0.00 | 95 | 1011.8 |
| 20260905124013 | 60 | 61 | 2.0 | 4.0 | 0.00 | 0.00 | 0.00 | 95 | 1011.7 |
| 20260905123516 | 60 | 59 | 1.0 | 4.0 | 0.00 | 0.00 | 0.00 | 95 | 1011.7 |
| 20260905123053 | 60 | 51 | 2.0 | 4.0 | 0.00 | 0.00 | 0.00 | 95 | 1011.6 |
| 20260905122518 | 60 | 63 | 3.0 | 4.0 | 0.00 | 0.00 | 0.00 | 95 | 1011.6 |
| 20260905122014 | 59 | 26 | 2.0 | 4.0 | 0.00 | 0.00 | 0.00 | 95 | 1011.5 |
| 20260905121535 | 59 | 51 | 1.0 | 5.0 | 0.00 | 0.00 | 0.00 | 95 | 1011.5 |
| 20260905121014 | 59 | 51 | 2.0 | 5.0 | 0.00 | 0.00 | 0.00 | 95 | 1011.5 |
| 20260905120514 | 59 | 71 | 3.0 | 5.0 | 0.00 | 0.00 | 0.00 | 95 | 1011.5 |
| 20260905120012 | 59 | 51 | 3.0 | 8.0 | 0.00 | 0.00 | 0.00 | 95 | 1011.4 |
| 20260905115511 | 59 | 71 | 3.0 | 8.0 | 0.00 | 0.00 | 0.00 | 95 | 1011.4 |
| 20260905115008 | 59 | 49 | 3.0 | 5.0 | 0.00 | 0.00 | 0.00 | 95 | 1011.3 |
| 20260905114521 | 59 | 22 | 3.0 | 5.0 | 0.00 | 0.00 | 0.00 | 95 | 1011.3 |
| 20260905114011 | 59 | 41 | 2.0 | 7.0 | 0.00 | 0.00 | 0.00 | 95 | 1011.2 |
| 20260905113511 | 58 | 38 | 3.0 | 7.0 | 0.00 | 0.00 | 0.00 | 95 | 1011.3 |
| 20260905113030 | 58 | 16 | 3.0 | 5.0 | 0.00 | 0.00 | 0.00 | 95 | 1011.3 |
| 20260905112514 | 58 | 17 | 3.0 | 5.0 | 0.00 | 0.00 | 0.00 | 95 | 1011.2 |
| 20260905112014 | 58 | 51 | 1.0 | 4.0 | 0.00 | 0.00 | 0.00 | 95 | 1011.3 |
| 20260905111530 | 58 | 336 | 2.0 | 5.0 | 0.00 | 0.00 | 0.00 | 94 | 1011.2 |
| 20260905111015 | 58 | 47 | 3.0 | 5.0 | 0.00 | 0.00 | 0.00 | 95 | 1011.2 |
| 20260905110517 | 58 | 9 | 1.0 | 3.0 | 0.00 | 0.00 | 0.00 | 95 | 1011.1 |
| 20260905110034 | 58 | 330 | 1.0 | 3.0 | 0.00 | 0.00 | 0.00 | 94 | 1011.1 |
| 20260905105518 | 58 | 9 | 1.0 | 3.0 | 0.00 | 0.00 | 0.00 | 95 | 1011.1 |